www.pogodaiklimat.ru

Погода и климат >> Архив погоды >> Австралия >> Южная Австралия >> Кубер-Педи


ПОГОДА в Кубер-Педи

  • Прогноз погоды в Кубер-Педи
  • Монитор погоды в Кубер-Педи

АРХИВ ПОГОДЫ в Кубер-Педи

Время (UTC), дата Ветер
(напр.,м/с)
 
Видим.   Явления Облачность Т
(С)
Тd
(С)
f
(%)
Тe
(С)
Тes
(С)
Комфортность P
(гПа)
Po
(гПа)
Тmin
(С)
Tmax
(С)
R
(мм)
R24
(мм)
S
(см)
10 11.06 СВ 4 н/о н/о +23.1 +9.5 42 +25 +25 комфорт 1014.0 987.1
11 11.06 СВ 6 н/о 10/0
[]
+23.7 +9.7 41 +25 +25 комфорт 1013.5 986.7
12 11.06 С 5 н/о н/о +23.0 +10.1 44 +25 +25 комфорт 1013.3 986.5
13 11.06 С 6 н/о н/о +23.4 +10.5 44 +25 +25 комфорт 1013.3 986.5
14 11.06 С 7 н/о 10/0
[]
+23.2 +10.6 45 +25 +25 комфорт 1012.7 985.9 +26.7
15 11.06 С 10 н/о н/о +23.5 +11.5 47 +25 +25 комфорт 1012.0 985.2
16 11.06 С 8 н/о н/о +23.0 +11.1 47 +25 +25 комфорт 1011.3 984.5
17 11.06 С 8 н/о туман местами 9/9 600 м
[]
+22.7 +11.1 48 +25 +25 комфорт 1010.9 984.1 0.8
18 11.06 З 7 н/о н/о +18.4 +16.4 88 +18 +18 1013.3 986.5
19 11.06 Ю 6 н/о н/о +17.1 +14.9 87 +16 +16 1014.3 987.4
20 11.06 Ю 5 н/о {туман} 10/10 1500 м
[]
+16.6 +14.6 88 +16 +16 1015.0 988.1
21 11.06 ЮЗ 5 н/о н/о +16.5 +14.7 89 +16 +16 1016.5 989.6
22 11.06 ЮЗ 8 н/о н/о +15.1 +13.8 92 +13 +13 1017.6 990.6
23 11.06 ЮЗ 6 н/о {туман} 10/10 1000 м
[]
+15.1 +14.0 93 +13 +13 1018.0 991.0 3
00 12.06 ЮЗ 6 н/о н/о +15.9 +14.1 89 +14 +14 1018.3 991.3
01 12.06 ЮЗ 6 н/о н/о +15.5 +13.3 87 +14 +14 1019.1 992.1
02 12.06 ЮЗ 7 н/о 10/0
[]
+15.7 +13.2 85 +14 +14 1019.1 992.1 +14.0
03 12.06 ЮЗ 6 н/о н/о +16.1 +11.5 74 +15 +15 1018.6 991.6
04 12.06 ЮЗ 6 н/о н/о +17.3 +9.5 60 +16 +16 1018.2 991.2
05 12.06 З 5 н/о 9/0
[]
+17.7 +7.7 52 +17 +17 1018.0 991.0
06 12.06 З 6 н/о н/о +18.6 +7.7 49 +18 +18 1018.1 991.1
07 12.06 З 6 н/о н/о +19.3 +6.8 44 +20 +20 1018.1 991.1
08 12.06 ЮЗ 5 н/о н/о +17.4 +7.2 51 +17 +17 1018.6 991.6
09 12.06 ЮЗ 4 н/о н/о +14.7 +7.7 63 +14 +14 1019.5 992.5
10 12.06 ЮЗ 4 н/о н/о +12.6 +7.5 71 +11 +11 1020.3 993.3
11 12.06 ЮЗ 4 н/о н/о +11.5 +7.2 75 +9 +9 1021.0 994.0
12 12.06 ЮЗ 4 н/о н/о +10.8 +6.7 76 +8 +8 1021.6 994.5
13 12.06 ЮЗ 4 н/о н/о +10.2 +6.2 76 +8 +8 1021.8 994.7
14 12.06 ЮЗ 4 н/о н/о +8.9 +6.0 82 +6 +6 1021.6 994.5 +24.0
15 12.06 ЮЗ 4 н/о н/о +8.1 +5.6 84 +5 +5 1021.7 994.6
16 12.06 ЮЗ 5 н/о н/о +7.6 +5.2 85 +4 +4 1021.5 994.4
17 12.06 ЮЗ 4 н/о н/о +6.9 +4.7 86 +3 +3 1021.6 994.5
18 12.06 ЮЗ 4 н/о н/о +6.2 +4.2 87 +3 +3 1021.7 994.6
19 12.06 З 4 н/о н/о +5.1 +3.6 90 +1 +1 1021.1 994.1
20 12.06 ЮЗ 4 н/о н/о +5.0 +3.5 90 +1 +1 1021.6 994.5
21 12.06 ЮЗ 2 н/о н/о +5.0 +3.5 90 +2 +2 1022.0 994.9
22 12.06 З 2 н/о н/о +5.3 +3.6 89 +3 +3 1022.6 995.5
23 12.06 ЮЗ 2 н/о н/о +7.3 +5.0 85 +5 +5 1023.3 996.2
00 13.06 ЮЗ 2 н/о н/о +10.3 +5.3 71 +9 +9 1023.9 996.8
01 13.06 ЮЗ 2 н/о н/о +12.9 +5.1 59 +12 +12 1024.4 997.3
02 13.06 Ю 3 н/о н/о +15.1 +5.9 54 +14 +14 1023.8 996.7 +4.7
03 13.06 Ю 4 н/о н/о +16.6 +5.6 48 +16 +16 1022.8 995.7
04 13.06 Ю 4 н/о н/о +16.5 +4.2 44 +16 +16 1022.0 994.9
05 13.06 ЮЗ 3 н/о 10/0
[]
+16.7 +3.4 41 +17 +17 1021.1 994.1
06 13.06 ЮЗ 4 н/о н/о +16.9 +2.5 38 +17 +17 1021.1 994.1
07 13.06 ЮВ 2 н/о н/о +16.5 +3.2 41 +17 +17 1020.9 993.9
08 13.06 штиль 0 н/о 4/0
[]
+16.1 +4.2 45 +16 +16 1021.8 994.7
09 13.06 штиль 0 н/о н/о +14.5 +4.8 52 +14 +14 1022.3 995.2
10 13.06 штиль 0 н/о н/о +13.1 +4.8 57 +13 +13 1022.8 995.7
11 13.06 В 2 н/о н/о +11.7 +4.9 63 +11 +11 1023.2 996.1
12 13.06 штиль 0 н/о н/о +11.6 +3.9 59 +11 +11 1023.3 996.2
13 13.06 штиль 0 н/о н/о +10.8 +4.3 64 +10 +10 1023.2 996.1
14 13.06 СЗ 2 н/о н/о +9.8 +4.0 67 +9 +9 1023.2 996.1 +17.5
15 13.06 СЗ 2 н/о н/о +9.6 +4.0 68 +9 +9 1022.9 995.8
16 13.06 СЗ 2 н/о н/о +8.8 +3.6 70 +7 +7 1022.7 995.6
17 13.06 СЗ 2 н/о н/о +9.8 +3.8 66 +8 +8 1022.4 995.3
18 13.06 СЗ 2 н/о н/о +9.0 +3.4 68 +7 +7 1022.3 995.2
19 13.06 СЗ 3 н/о н/о +8.0 +3.3 72 +6 +6 1022.0 994.9
20 13.06 З 2 н/о н/о +7.8 +3.1 72 +6 +6 1022.0 994.9
21 13.06 З 2 н/о н/о +7.2 +2.9 74 +5 +5 1022.4 995.3
22 13.06 З 3 н/о н/о +6.1 +2.6 78 +3 +3 1023.2 996.1
23 13.06 З 3 н/о н/о +8.8 +4.4 74 +7 +7 1023.8 996.7
00 14.06 З 3 н/о н/о +12.3 +4.5 59 +11 +11 1024.5 997.4
01 14.06 З 3 н/о н/о +14.5 +4.8 52 +14 +14 1024.5 997.4
02 14.06 З 3 н/о н/о +16.7 +3.7 42 +17 +17 1024.3 997.2 +6.1
03 14.06 З 2 н/о н/о +17.1 +3.1 39 +17 +17 1023.2 996.1
04 14.06 Ю 2 н/о н/о +17.9 +1.8 34 +19 +19 1022.1 995.0
05 14.06 ЮЗ 4 н/о н/о +17.8 +1.3 33 +18 +18 1021.6 994.5
06 14.06 ЮЗ 5 н/о н/о +18.4 +1.4 32 +18 +18 1021.4 994.3
07 14.06 З 1 н/о н/о +18.2 +1.3 32 +19 +19 1021.5 994.4
08 14.06 ЮЗ 3 н/о 3/0 2000 м
[]
+17.0 +1.4 35 +17 +17 1021.5 994.4
09 14.06 ЮВ 2 н/о н/о +15.1 +2.6 43 +15 +15 1022.0 994.9
10 14.06 ЮВ 2 н/о н/о +13.1 +2.6 49 +13 +13 1022.6 995.5
11 14.06 ЮВ 3 н/о н/о +12.6 +3.0 52 +11 +11 1023.1 996.0
12 14.06 ЮВ 3 н/о н/о +11.5 +2.8 55 +10 +10 1023.2 996.1
13 14.06 В 4 н/о н/о +11.4 +2.4 54 +10 +10 1022.8 995.7
14 14.06 В 4 н/о н/о +11.0 +2.1 54 +9 +9 1022.8 995.7 +18.8
15 14.06 В 3 н/о н/о +11.1 +2.2 54 +10 +10 1022.6 995.5
16 14.06 ЮВ 4 н/о н/о +9.4 +2.0 60 +7 +7 1022.3 995.2
17 14.06 В 4 н/о н/о +9.1 +2.0 61 +7 +7 1022.0 994.9
18 14.06 В 5 н/о н/о +9.1 +2.0 61 +6 +6 1021.6 994.5
19 14.06 СВ 3 н/о н/о +7.3 +2.2 70 +5 +5 1021.4 994.3
20 14.06 СВ 4 н/о н/о +6.4 +1.5 71 +3 +3 1021.7 994.6
21 14.06 СВ 3 н/о н/о +5.3 +1.2 75 +2 +2 1022.0 994.9
22 14.06 СВ 4 н/о н/о +6.1 +1.8 74 +3 +3 1022.4 995.3
23 14.06 С 4 н/о н/о +10.2 +3.0 61 +8 +8 1023.1 996.0
00 15.06 С 4 н/о н/о +13.2 +3.6 52 +12 +12 1023.6 996.5
01 15.06 С 4 н/о н/о +15.6 +4.0 46 +15 +15 1023.7 996.6
02 15.06 С 3 н/о н/о +17.8 +2.2 35 +18 +18 1023.3 996.2 +5.2
03 15.06 СВ 2 н/о н/о +18.2 +1.7 33 +19 +19 1022.5 995.4
04 15.06 З 3 н/о н/о +18.3 +0.9 31 +19 +19 1021.1 994.1
05 15.06 З 1 н/о н/о +19.2 +1.2 30 +21 +21 комфорт 1020.2 993.2
06 15.06 СЗ 1 н/о н/о +19.0 +1.1 30 +21 +21 комфорт 1020.2 993.2
07 15.06 З 1 н/о н/о +18.9 +1.0 30 +20 +20 1020.2 993.2
08 15.06 ЮЗ 2 н/о 9/0
[]
+17.5 +0.6 32 +18 +18 1020.3 993.3
09 15.06 штиль 0 н/о н/о +16.0 +1.0 36 +16 +16 1020.8 993.8
10 15.06 ЮВ 3 н/о н/о +14.8 +1.3 40 +14 +14 1021.5 994.4
11 15.06 В 2 н/о н/о +13.0 +1.7 46 +13 +13 1022.1 995.0
12 15.06 В 2 н/о н/о +13.1 +1.5 45 +13 +13 1022.4 995.3
13 15.06 СВ 2 н/о н/о +10.5 +1.1 52 +9 +9 1022.8 995.7
14 15.06 С 3 н/о 5/0 2000 м
[]
+10.4 +0.7 51 +9 +9 1022.5 995.4 +19.9
15 15.06 С 2 н/о н/о +10.5 +0.8 51 +9 +9 1022.2 995.1
16 15.06 С 2 н/о н/о +10.3 +1.4 54 +9 +9 1021.9 994.8
17 15.06 З 3 н/о н/о +7.8 +0.5 60 +5 +5 1022.2 995.1
18 15.06 СЗ 3 н/о н/о +9.0 +1.2 58 +7 +7 1022.4 995.3
19 15.06 СЗ 3 н/о н/о +8.1 +1.5 63 +6 +6 1022.3 995.2
20 15.06 СЗ 4 н/о 3/0 2000 м
[]
+7.5 +0.9 63 +4 +4 1022.2 995.1
21 15.06 З 4 н/о н/о +6.1 +0.4 67 +3 +3 1022.5 995.4
22 15.06 З 4 н/о н/о +5.0 +0.2 71 +1 +1 1023.1 996.0
23 15.06 З 3 н/о н/о +9.0 +1.2 58 +7 +7 1023.5 996.4
00 16.06 З 4 н/о н/о +12.6 +1.9 48 +11 +11 1024.3 997.2
01 16.06 ЮЗ 6 н/о н/о +14.8 +3.9 48 +13 +13 1024.5 997.4
02 16.06 Ю 6 н/о н/о +15.8 +7.3 57 +15 +15 1024.0 996.9 +5.0
03 16.06 ЮЗ 6 н/о н/о +16.6 +7.0 53 +16 +16 1023.4 996.3
04 16.06 ЮЗ 6 н/о н/о +17.5 +5.8 46 +17 +17 1023.0 995.9
05 16.06 ЮЗ 6 н/о 1/1 1500 м
[]
+18.0 +4.6 41 +17 +17 1022.6 995.5
06 16.06 ЮЗ 8 н/о н/о +17.9 +2.6 36 +17 +17 1022.5 995.4
07 16.06 ЮЗ 7 н/о н/о +17.4 +2.6 37 +16 +16 1022.6 995.5
08 16.06 ЮЗ 6 н/о н/о +16.1 +2.9 41 +15 +15 1023.0 995.9
09 16.06 Ю 4 н/о н/о +14.0 +2.3 45 +13 +13 1023.1 996.0
10 16.06 Ю 3 н/о н/о +12.8 +2.9 51 +12 +12 1023.9 996.8
11 16.06 Ю 3 н/о н/о +12.3 +3.0 53 +11 +11 1024.1 997.0
12 16.06 Ю 2 н/о н/о +11.1 +2.2 54 +10 +10 1024.4 997.3
13 16.06 ЮЗ 1 н/о н/о +9.1 +1.5 59 +10 +10 1024.6 997.5
14 16.06 ЮЗ 2 н/о 5/5 1500 м
[]
+8.5 +2.3 65 +7 +7 1024.6 997.5 +18.5
15 16.06 ЮЗ 2 н/о н/о +8.4 +2.0 64 +7 +7 1024.4 997.3
16 16.06 ЮЗ 2 н/о н/о +7.4 +0.8 63 +6 +6 1024.2 997.1
17 16.06 ЮЗ 3 н/о н/о +7.2 +1.7 68 +5 +5 1024.1 997.0
18 16.06 ЮЗ 2 н/о н/о +7.5 +2.0 68 +6 +6 1023.9 996.8
19 16.06 штиль 0 н/о н/о +7.2 +2.1 70 +7 +7 1023.7 996.6
20 16.06 штиль 0 н/о н/о +4.8 -0.4 69 +4 +4 1024.1 997.0
21 16.06 штиль 0 н/о н/о +4.9 -0.7 67 +4 +4 1024.4 997.3
22 16.06 С 2 н/о н/о +4.9 +1.4 78 +2 +2 1024.8 997.7
23 16.06 С 3 н/о 10/10 1500 м
[]
+10.4 +3.7 63 +9 +9 1025.3 998.1
00 17.06 С 4 н/о н/о +12.6 +3.8 55 +11 +11 1025.7 998.5
01 17.06 С 4 н/о н/о +14.8 +3.9 48 +14 +14 1025.9 998.7
02 17.06 З 3 н/о 10/10 1500 м
[]
+16.0 +2.4 40 +16 +16 1025.5 998.3 +4.3
03 17.06 З 6 н/о н/о +16.4 +2.8 40 +15 +15 1024.8 997.7
04 17.06 ЮЗ 7 н/о н/о +16.9 +1.8 36 +16 +16 1024.0 996.9
05 17.06 З 6 н/о 10/0 2000 м
[]
+17.3 +1.3 34 +17 +17 1023.3 996.2
06 17.06 З 7 н/о н/о +17.2 +1.2 34 +16 +16 1023.2 996.1
07 17.06 ЮЗ 6 н/о н/о +16.8 +1.7 36 +16 +16 1023.2 996.1
08 17.06 ЮЗ 5 н/о 10/0 2000 м
[]
+16.0 +1.7 38 +15 +15 1023.4 996.3
09 17.06 ЮЗ 3 н/о н/о +14.8 +2.0 42 +14 +14 1023.8 996.7
10 17.06 ЮЗ 3 н/о н/о +13.3 +1.9 46 +12 +12 1024.1 997.0
11 17.06 ЮЗ 2 н/о 10/0 2000 м
[]
+11.9 +2.1 51 +11 +11 1024.5 997.4
12 17.06 ЮЗ 3 н/о н/о +11.5 +1.5 50 +10 +10 1024.5 997.4
13 17.06 З 2 н/о н/о +10.6 +1.4 53 +10 +10 1024.5 997.4
14 17.06 З 3 н/о н/о +9.1 +1.3 58 +7 +7 1024.3 997.2 +17.9
15 17.06 З 4 н/о н/о +7.9 +0.9 61 +5 +5 1024.1 997.0
16 17.06 З 4 н/о н/о +6.8 +0.3 63 +3 +3 1024.0 996.9
17 17.06 ЮЗ 4 н/о н/о +7.0 +0.5 63 +4 +4 1024.5 997.4
18 17.06 ЮЗ 5 н/о н/о +7.9 +2.8 70 +5 +5 1024.6 997.5
19 17.06 ЮЗ 5 н/о н/о +7.2 +3.3 76 +3 +3 1024.7 997.6
20 17.06 Ю 6 н/о 10/10 300 м
[]
+8.9 +7.0 88 +5 +5 1025.2 998.0
21 17.06 Ю 4 н/о н/о +8.5 +6.6 88 +5 +5 1025.8 998.6
22 17.06 Ю 4 н/о н/о +8.8 +7.9 94 +6 +6 1026.5 999.3
23 17.06 ЮЗ 5 н/о 10/10 100 м
[]
+10.0 +8.8 92 +7 +7 1027.3 1000.1
00 18.06 Ю 5 н/о н/о +11.3 +9.0 86 +9 +9 1027.9 1000.7
01 18.06 Ю 6 н/о н/о +12.8 +8.5 75 +10 +10 1028.1 1000.9
02 18.06 Ю 6 н/о 1/1 600 м
[]
+14.1 +5.5 56 +12 +12 1027.7 1000.5 +6.5
03 18.06 Ю 5 н/о н/о +14.7 +5.0 52 +13 +13 1027.2 1000.0
04 18.06 Ю 5 н/о н/о +15.7 +4.7 48 +15 +15 1026.1 998.9
05 18.06 ЮЗ 4 н/о 4/4 1500 м
[]
+15.7 +2.8 42 +15 +15 1025.5 998.3
06 18.06 Ю 4 н/о н/о +15.5 +2.7 42 +15 +15 1025.3 998.1
07 18.06 Ю 5 н/о н/о +15.1 +1.6 40 +14 +14 1025.2 998.0
08 18.06 Ю 5 н/о 1/1 1500 м
[]
+14.3 +1.9 43 +13 +13 1025.5 998.3

 

Местоположение метеостанции Кубер-Педи (Южная Австралия, Австралия): широта -29.03 долгота 134.71 высота над уровнем моря 226 м.

В архиве по умолчанию представлена погода в Кубер-Педи за последнюю неделю. Архивные данные за месяц целиком и за предыдущие месяцы, начиная с января 2011 года, Вы можете получить, выбрав интересующий диапазон дат из раскрывающегося списка и нажав кнопку "Ввод!".


*Определитесь, кто Вы:
робот инопланетянин человек

Внимание! Время в таблицах - всемирное. Для получения местного времени необходимо прибавить поправку, которая равна 9.5 ч.

Смотрите также архив погоды в соседних городах и на ближайших метеорологических станциях:

Погода в Однадатте (Южная Австралия, Австралия) (180 км)
Погода в Таркуле (Южная Австралия, Австралия) (188 км)
Погода в Олимпик Дэм (Южная Австралия, Австралия) (264 км)
Погода на Аэродроме Вумера (Южная Австралия, Австралия) (311 км)
Погода в Марри (Южная Австралия, Австралия) (332 км)
Погода в Сидуне (Южная Австралия, Австралия) (358 км)
Погода в Эрнабелле (Южная Австралия, Австралия) (395 км)
Погода в Ли-Крике (Южная Австралия, Австралия) (398 км)
Погода в Миннипа Пирса (Южная Австралия, Австралия) (427 км)
Погода в Уудинне (Южная Австралия, Австралия) (453 км)

Пояснения к столбцам:

Ветер - указаны скорость ветра в м/с - средняя за 10 мин, порывы в срок и между сроками (в фигурных скобках) и направление, откуда дует ветер: С - северный, СВ - северо-восточный, В - восточный, ЮВ - юго-восточный, Ю - южный, ЮЗ - юго-западный, З - западный, СЗ - северо-западный.
Видимость - горизонтальная дальность видимости в метрах или километрах. При видимости от 1 до 10 км при отсутствии осадков обычно наблюдается дымка, при ухудшении видимости до 1 км и менее - туман. В сухую погоду видимость может ухудшаться дымом, пылью или мглою.
Явления - указаны атмосферные явления, наблюдавшиеся в срок или в последний час перед сроком; фигурными скобками обозначены явления, наблюдавшиеся между сроками (за 1-3 часа до срока); квадратными скобками обозначены град или гололедные отложения с указанием их диаметра в мм.
Облачность - указаны через наклонную черту общая и нижняя облачность в баллах и высота нижней границы облаков в метрах; квадратными скобками обозначены формы облаков: Ci - перистые, Cs - перисто-слоистые, Cc - перисто-кучевые, Ac - высококучевые, As - высокослоистые, Sc - слоисто-кучевые, Ns - слоисто-дождевые, Cu - кучевые, Cb - кучево-дождевые. Подробнее классификацию облаков см. в Атласе облаков (PDF).
T - Температура воздуха - температура, измеренная на высоте 2 м над землей.
Td - Температура точки росы - температура, при понижении до которой содержащийся в воздухе водяной пар достигнет насыщения.
f - Относительная влажность воздуха - влажноcть воздуха, измеренная на высоте 2 м над землей.
Te - Эффективная температура - температура, которую ощущает одетый по сезону человек в тени. Характеристика душности погоды. При расчете учитывается влияние влажности воздуха и скорости ветра на теплоощущения человека.
Tes - Эффективная температура на солнце - температура, которую ощущает человек, с поправкой на солнечный нагрев. Характеристика знойности погоды. Зависит от высоты солнца над горизонтом, облачности и скорости ветра. Ночью, в пасмурную погоду, а также при ветре 12 м/с и более поправка равна нулю.
P - Атмосферное давление - приведенное к уровню моря атмосферное давление.
Po - Атмосферное давление - измеренное на уровне метеостанции атмосферное давление.
Tmin - Минимальная температура - минимум температуры воздуха на высоте 2 м над землей.
Tmax - Максимальная температура - максимум температуры воздуха на высоте 2 м над землей.
R - Количество осадков - Количество выпавших осадков за период времени, мм. При наведении курсора мыши на число - период времени, за который выпало указанное количество осадков.
R24 - Количество осадков - Количество выпавших осадков за 24 часа, мм.
S - Снежный покров - Высота снежного покрова, см. При наведении курсора мыши на число - состояние снежного покрова и степень покрытия местности в баллах.